Theta_e
318 318 318 318 317 318 318 319 319 319 319 318 319 320 320 321 320 316 303 307 312 331 347 335 325 318 314 317 332 337 320 315 319 321 324 329 326 334 337 330 331 332 331 334 340
317 317 317 317 317 317 317 317 317 317 318 318 317 319 320 321 313 309 317 326 330 340 322 318 315 312 305 309 316 326 317 317 325 326 328 329 329 330 329 328 327 329 333 338 340
317 317 317 317 317 317 317 317 317 317 317 317 318 317 320 319 303 301 329 331 337 337 316 311 314 309 305 310 317 326 319 324 326 330 332 329 328 331 327 326 326 325 329 336 336
317 317 317 317 317 316 316 316 316 317 317 317 317 318 320 311 289 314 345 335 339 326 312 308 307 306 306 307 321 318 325 327 329 333 332 328 331 326 329 331 334 331 334 335 334
316 316 316 317 316 316 316 316 316 316 316 316 317 318 313 303 299 311 350 335 330 320 309 305 305 309 306 309 325 321 327 328 334 332 331 331 328 326 328 336 335 336 336 334 334
317 317 316 316 316 316 317 316 315 316 316 316 316 318 306 291 304 321 329 331 323 311 307 307 308 313 313 312 319 326 327 328 331 331 329 328 327 331 330 338 333 334 333 334 335
316 317 317 316 316 316 316 315 315 315 315 316 317 316 308 299 319 323 321 316 311 308 305 308 312 317 316 310 313 315 321 326 328 330 327 329 322 324 332 335 329 330 332 334 336
317 316 316 316 315 315 314 314 314 314 315 316 317 310 297 311 314 311 314 308 308 303 304 311 316 316 316 316 307 305 316 316 325 330 328 327 314 326 332 332 329 327 330 333 335
316 316 316 315 314 314 314 315 316 316 317 318 306 303 298 316 310 311 312 311 306 302 303 312 317 312 309 300 296 298 298 312 319 330 327 323 316 326 332 331 329 326 325 330 333
316 316 315 315 314 315 314 315 315 316 319 318 314 301 306 304 308 311 311 313 305 304 304 305 305 299 296 295 291 294 296 307 317 325 327 320 318 325 329 330 330 329 324 329 331
316 314 314 314 313 313 308 307 305 303 307 297 298 303 308 311 311 308 313 309 305 302 297 302 297 294 298 299 299 299 299 315 320 323 319 317 319 322 327 329 330 331 321 328 330
316 315 314 313 312 312 304 301 307 306 299 308 306 307 311 308 303 305 311 304 302 297 302 297 294 300 303 302 300 299 307 313 319 324 321 316 318 323 326 327 329 330 321 327 329
315 315 314 313 311 306 302 304 310 307 297 301 306 305 305 306 302 303 310 306 301 298 299 296 299 304 302 300 299 294 297 312 313 318 322 319 315 319 324 328 330 333 323 329 329
315 314 314 312 303 304 303 306 308 307 289 296 298 305 306 305 302 311 311 307 301 300 300 298 304 303 299 299 299 290 300 314 315 310 304 317 301 312 321 324 328 328 323 327 329
315 315 313 310 301 301 306 306 306 300 284 303 301 307 303 303 305 306 310 305 299 300 299 297 299 300 298 300 301 298 303 311 315 309 308 312 303 304 320 319 323 327 324 326 330
315 313 311 306 304 307 309 307 301 290 287 300 303 302 298 301 303 308 306 307 306 301 299 300 303 301 300 303 303 306 311 310 307 304 297 308 305 305 312 318 322 327 327 326 330
313 310 308 310 304 307 307 302 292 287 301 298 297 300 296 294 300 303 301 297 295 291 290 298 300 302 303 296 299 299 300 293 294 295 295 303 304 304 317 322 325 326 327 328 329
310 308 307 310 307 309 304 297 288 297 296 301 301 298 293 297 298 300 298 296 297 296 291 290 290 299 301 299 295 295 297 290 288 291 294 304 298 305 319 324 327 331 331 333 333
308 303 304 308 310 306 298 288 289 294 300 300 297 294 293 300 299 298 297 295 299 297 292 289 292 303 303 302 301 295 293 297 292 291 296 300 304 313 320 319 325 327 330 332 332
303 305 304 311 311 304 296 291 293 301 303 298 292 295 292 296 296 294 296 298 299 301 296 293 290 297 303 302 304 297 300 294 291 287 287 297 298 302 314 318 319 324 325 328 332
304 304 309 310 308 300 292 291 298 303 304 297 294 294 293 296 297 296 293 299 300 299 300 295 293 295 298 294 296 299 297 294 293 291 291 292 298 318 318 324 324 325 326 328 331
302 298 309 308 298 294 292 297 301 298 300 298 298 296 296 298 296 297 295 296 302 299 296 297 291 289 293 299 300 298 297 295 291 291 294 296 301 322 323 325 325 325 327 328 327
299 300 306 306 291 292 294 299 298 297 297 297 295 297 299 296 295 299 300 303 301 300 295 296 291 289 291 293 298 294 294 292 293 295 293 294 301 322 323 322 325 325 326 328 330
301 292 296 296 292 291 291 292 293 300 299 298 295 296 295 295 296 294 299 304 304 303 315 303 290 290 288 290 293 291 295 294 291 290 294 298 309 316 318 317 319 321 324 325 325
300 294 295 291 294 292 292 294 294 294 297 299 298 297 293 291 293 295 298 299 304 309 300 297 292 292 295 296 296 295 297 296 291 295 294 306 309 315 318 318 316 318 320 320 320
301 300 302 296 293 292 291 290 294 295 295 295 296 298 297 294 294 292 294 295 296 301 299 297 291 293 294 299 296 294 296 303 305 308 306 310 310 319 319 314 313 314 313 313 314
307 306 303 297 292 292 291 294 298 297 298 300 300 297 296 297 298 297 300 295 293 293 294 296 293 291 289 294 295 290 294 296 306 308 311 307 312 315 312 312 311 312 312 311 312
Wind_Speed
12 12 12 12 12 11 12 12 12 11 10 11 13 12 12 12 12 2 7 12 10 9 11 9 3 4 3 3 4 3 1 4 7 6 7 5 4 4 2 10 4 5 8 13 18
14 13 12 12 12 11 11 12 12 12 12 11 12 13 12 12 2 9 14 14 14 13 6 9 6 6 2 3 2 3 2 2 4 3 9 13 8 8 5 7 11 17 17 19 18
12 13 14 13 13 13 12 11 12 12 12 12 12 12 12 9 4 9 5 19 16 13 5 5 5 6 2 3 3 4 3 4 4 5 6 12 9 5 12 3 13 24 23 20 17
13 13 12 12 13 13 13 12 12 11 12 12 12 12 13 3 3 1 5 21 16 10 5 5 3 5 4 5 5 4 2 6 3 8 16 15 10 10 8 3 9 20 23 20 19
14 14 13 13 13 12 12 12 12 12 11 11 11 9 5 1 11 5 4 19 10 9 9 7 6 5 5 4 6 3 6 8 6 3 12 15 8 7 11 2 11 22 22 20 18
15 14 15 14 14 14 12 12 12 11 11 10 7 5 0 4 4 3 12 12 9 8 7 7 8 7 2 4 6 7 8 8 7 8 14 13 6 9 8 1 13 25 21 19 19
15 14 14 14 14 13 13 11 11 11 9 8 4 2 1 13 5 5 9 4 6 9 7 4 2 3 0 5 4 7 8 10 8 11 6 13 4 3 6 2 13 20 20 18 17
14 15 15 14 14 14 13 11 9 8 7 4 3 1 9 5 4 4 3 2 2 2 3 3 3 1 3 4 5 2 6 6 7 14 9 0 4 8 5 5 8 20 18 18 17
15 14 13 14 14 14 11 13 12 6 4 6 3 2 11 5 3 7 9 5 6 4 0 5 6 5 1 2 5 5 4 5 7 11 5 3 3 9 10 8 7 19 15 17 17
14 13 13 11 12 12 14 14 1 1 4 5 4 2 7 2 5 5 6 7 4 8 4 4 2 3 3 4 4 3 3 1 4 10 9 6 6 13 15 9 6 5 12 17 16
13 14 13 13 10 9 8 1 3 1 3 9 7 5 5 6 4 4 6 6 1 5 6 4 4 7 8 5 5 4 2 9 6 8 7 5 6 10 15 8 7 4 8 17 17
13 12 12 13 11 5 1 2 5 4 9 14 12 7 6 4 4 3 8 6 4 4 5 5 6 8 6 7 5 3 4 6 9 7 8 10 9 8 14 9 6 6 7 15 14
13 14 14 13 10 2 4 6 2 3 1 7 6 5 5 9 7 6 10 5 4 4 4 6 4 5 4 3 5 3 5 7 9 8 5 9 2 8 10 9 9 9 7 16 16
15 13 12 13 4 0 5 4 7 5 5 7 3 5 4 3 3 5 7 6 2 8 6 4 6 4 3 4 6 2 8 9 15 10 6 7 4 5 12 12 11 10 11 16 17
16 12 9 4 5 1 5 6 3 4 5 13 5 1 2 8 5 3 5 4 7 4 7 6 5 6 5 8 7 10 6 14 13 4 5 4 3 3 10 11 10 12 13 17 21
17 14 9 3 2 9 8 7 4 7 4 8 5 6 5 0 1 4 4 5 3 2 1 7 3 5 8 4 10 2 9 11 6 4 2 8 6 5 13 18 24 19 14 18 20
15 14 5 2 5 1 4 5 6 5 5 7 5 5 3 2 1 4 4 4 5 4 4 7 5 6 6 3 1 4 8 3 4 1 7 5 2 4 12 18 26 24 12 14 15
20 10 7 6 2 6 4 7 7 2 1 5 6 5 3 4 3 3 6 3 0 5 2 4 3 7 3 10 9 8 10 8 7 6 3 5 5 3 8 11 6 14 10 10 12
18 1 2 5 6 3 7 7 5 3 3 5 6 7 7 6 1 4 7 4 5 8 7 3 5 4 5 5 11 4 4 7 8 2 5 3 1 4 9 10 10 14 13 9 10
3 4 3 4 6 5 7 2 4 4 4 3 3 4 5 6 3 4 4 4 4 1 1 3 2 1 5 4 4 7 7 4 3 5 3 3 1 2 3 6 6 11 11 10 9
3 4 4 5 5 7 4 5 4 7 4 1 1 4 1 3 3 2 2 2 3 5 5 3 3 6 1 3 7 3 2 7 6 4 6 4 4 4 3 8 11 10 11 11 9
2 3 3 2 5 1 2 4 4 5 5 4 3 2 2 4 6 4 3 2 5 1 2 2 5 2 4 4 4 1 5 5 7 3 4 4 3 4 9 9 11 11 11 10 8
2 2 3 6 2 2 3 4 1 7 6 5 4 2 4 3 4 4 3 3 8 4 2 2 4 2 7 7 7 7 5 4 6 4 4 7 4 4 10 11 11 13 11 9 7
3 3 5 5 2 5 4 4 4 7 6 4 4 3 5 7 6 2 5 6 6 6 3 5 3 4 5 5 2 3 4 3 5 4 6 3 10 8 10 14 12 14 13 11 8
3 1 4 1 4 5 4 2 4 5 4 8 8 7 1 5 7 6 4 7 6 10 5 5 4 1 2 3 3 1 3 3 4 4 5 15 17 15 13 11 8 10 19 14 10
3 3 4 2 3 4 5 3 4 4 5 5 4 6 6 5 2 3 4 5 2 8 5 4 2 0 6 6 6 4 8 9 5 6 7 18 13 6 13 11 11 13 14 14 11
2 2 4 5 4 5 3 1 2 5 4 3 2 3 5 5 4 4 3 0 3 4 4 4 3 3 1 5 5 8 9 6 4 2 22 17 11 15 15 14 15 14 15 13 11
Wind_Direction
337 335 334 333 330 329 327 328 327 328 328 328 327 327 326 327 319 154 238 220 185 244 137 124 144 196 148 204 204 123 94 4 340 113 98 167 174 17 334 124 117 145 119 140 134
330 327 325 323 320 321 321 322 323 324 325 326 326 326 325 328 298 252 237 204 205 187 135 150 175 153 165 205 202 104 69 179 7 301 153 176 141 98 120 135 96 101 107 130 136
326 323 322 320 317 316 317 317 318 320 322 323 324 325 323 325 324 248 206 194 194 180 150 145 124 139 185 161 205 155 183 167 323 260 200 143 130 113 142 109 145 136 141 145 148
326 325 322 317 315 314 315 314 314 315 318 320 320 322 318 276 227 262 167 183 178 169 108 134 130 156 176 190 156 139 259 111 303 8 148 155 131 140 181 143 162 148 145 152 159
327 325 321 317 313 311 309 309 310 311 312 312 316 321 348 249 252 294 105 159 149 143 170 161 145 177 181 195 135 214 147 172 141 127 140 137 148 154 223 265 153 141 146 164 164
328 325 323 318 312 308 304 304 305 305 305 305 311 322 18 256 253 182 133 134 150 149 172 164 181 195 284 237 171 195 166 164 158 171 141 118 135 168 207 120 166 147 158 170 166
326 322 323 321 315 310 304 303 301 299 294 292 278 246 300 243 48 88 129 155 165 157 162 201 198 117 74 291 246 217 161 165 170 167 122 131 72 171 129 326 162 149 164 169 167
326 327 326 323 319 314 310 305 295 289 279 254 223 175 248 244 288 278 186 170 160 176 69 214 146 246 209 286 331 211 130 154 174 174 188 153 199 222 196 178 188 154 165 168 175
330 329 330 325 322 317 309 298 290 280 224 164 110 124 267 311 225 211 169 180 154 115 297 262 154 207 245 124 14 17 162 189 165 197 137 219 137 193 206 198 204 170 161 172 175
330 329 327 324 320 320 313 301 244 257 179 169 254 317 272 319 242 178 188 143 151 133 167 188 139 148 50 88 187 68 41 131 149 170 98 328 306 176 199 184 207 200 144 168 168
333 332 328 326 324 330 344 93 15 52 236 201 201 233 281 278 252 188 144 112 116 105 148 193 128 199 192 176 132 103 1 79 65 82 86 257 285 188 187 203 207 233 142 167 169
332 328 324 322 319 329 352 182 222 166 299 223 238 268 275 79 334 243 110 147 154 161 121 44 213 220 171 166 126 124 100 88 79 127 73 265 252 172 199 225 228 212 152 161 159
333 329 326 320 316 284 189 229 216 348 234 302 189 200 219 145 191 256 136 153 142 137 135 156 245 169 146 135 127 138 159 175 141 146 142 169 309 199 223 234 235 249 168 165 161
333 332 325 321 314 265 265 222 229 175 58 295 291 281 158 150 303 181 167 144 150 182 150 222 233 147 161 230 136 203 191 154 151 164 176 164 218 222 181 212 237 225 177 167 168
323 319 312 326 306 220 244 291 231 69 52 332 295 158 126 157 153 226 169 90 156 156 108 246 180 189 188 213 151 223 154 179 159 94 99 175 117 229 162 199 226 226 188 177 178
320 321 317 138 212 242 308 315 62 39 25 333 341 352 6 338 148 140 127 79 149 126 104 222 220 171 208 216 181 141 83 58 65 99 327 188 187 194 179 184 198 223 193 180 183
320 312 265 291 229 34 306 38 42 84 327 323 304 347 53 284 152 126 155 103 139 95 346 331 260 234 163 253 251 127 93 51 48 33 221 163 154 217 201 195 201 198 173 174 181
325 293 224 231 331 26 48 51 64 248 281 284 284 300 215 157 224 169 116 149 264 107 118 184 308 167 182 184 190 186 152 151 156 187 236 97 224 294 267 214 136 173 127 117 122
321 316 252 255 188 135 72 56 198 236 280 306 325 35 336 15 30 156 152 183 207 171 169 169 269 292 186 161 143 194 146 185 105 15 99 198 26 19 40 76 119 126 132 121 124
333 337 264 93 137 65 69 219 229 221 296 7 50 57 347 315 57 79 32 312 320 234 160 228 260 273 277 130 44 152 161 76 13 139 147 330 76 248 49 108 95 99 121 119 116
17 18 320 123 66 48 118 226 273 254 214 194 22 4 352 333 17 78 356 283 312 329 94 110 141 288 2 48 170 45 65 60 110 105 144 141 282 336 159 123 120 110 115 128 117
60 33 314 357 49 57 116 207 260 291 41 35 74 32 57 6 13 70 78 188 319 102 63 334 129 200 232 285 264 56 148 126 120 200 78 116 260 40 87 93 108 119 124 110 108
83 271 337 58 17 298 282 286 297 5 11 23 23 330 53 51 81 28 353 31 7 60 65 19 16 43 1 359 5 49 347 96 106 87 170 122 238 123 99 88 94 106 112 107 122
93 56 343 46 64 147 114 353 11 358 49 8 4 345 49 17 19 329 25 357 345 17 107 83 69 122 147 219 223 13 328 118 105 109 152 173 142 159 131 122 107 101 93 90 91
35 191 183 285 330 73 85 68 56 15 23 18 17 18 46 44 5 11 20 359 350 5 30 88 99 54 43 336 154 126 323 184 142 155 141 162 156 163 149 127 124 129 117 109 100
80 44 357 70 342 68 12 351 68 34 38 350 67 19 45 77 57 346 348 48 12 321 29 354 132 109 352 16 19 34 21 37 46 114 65 149 146 151 127 127 125 112 105 107 108
317 8 98 326 10 64 278 209 15 116 20 33 280 78 41 357 290 260 210 219 235 336 16 45 80 55 153 318 37 354 356 342 43 293 142 162 167 143 144 138 133 130 119 115 115